This is the latest recevied weather packets stored in our database for station/object K5OLV. If no packets are shown the sender has not sent any weather packets the latest 10 day(s).
| Time | Temp. | Humidity | Pressure | Rain* | Wind** | Luminosity | Snow |
|---|---|---|---|---|---|---|---|
| 1778001597 | 23.33° C | 48% | 1012.2 hPa | 0 mm | - | 686 W/m² | - |
| 1778001293 | 23.33° C | 50% | 1012.6 hPa | 0 mm | - | 657 W/m² | - |
| 1778000990 | 23.33° C | 49% | 1012.5 hPa | 0 mm | - | 667 W/m² | - |
| 1778000687 | 22.78° C | 50% | 1012.8 hPa | 0 mm | - | 683 W/m² | - |
| 1778000382 | 22.78° C | 50% | 1012.7 hPa | 0 mm | - | 728 W/m² | - |
| 1778000078 | 23.33° C | 51% | 1012.5 hPa | 0 mm | - | 703 W/m² | - |
| 1777999774 | 22.22° C | 50% | 1012.8 hPa | 0 mm | - | 766 W/m² | - |
| 1777999471 | 22.22° C | 51% | 1012.6 hPa | 0 mm | - | 723 W/m² | - |
| 1777999169 | 21.67° C | 51% | 1012.8 hPa | 0 mm | - | 690 W/m² | - |
| 1777998867 | 21.67° C | 52% | 1013 hPa | 0 mm | - | 551 W/m² | - |
| 1777998566 | 21.67° C | 51% | 1012.7 hPa | 0 mm | - | 619 W/m² | - |
| 1777998261 | 21.11° C | 54% | 1012.7 hPa | 0 mm | - | 734 W/m² | - |
| 1777997959 | 22.22° C | 53% | 1012.8 hPa | 0 mm | - | 734 W/m² | - |
| 1777997655 | 20.56° C | 57% | 1012.9 hPa | 0 mm | - | 725 W/m² | - |
| 1777997353 | 21.67° C | 57% | 1013 hPa | 0 mm | - | 727 W/m² | - |
| 1777997051 | 22.22° C | 58% | 1012.9 hPa | 0 mm | - | 762 W/m² | - |
| 1777996747 | 20.56° C | 59% | 1012.8 hPa | 0 mm | - | 747 W/m² | - |
| 1777996443 | 20.56° C | 60% | 1012.8 hPa | 0 mm | - | 732 W/m² | - |
| 1777996140 | 21.11° C | 60% | 1012.6 hPa | 0 mm | - | 685 W/m² | - |
| 1777995836 | 21.11° C | 59% | 1012.8 hPa | 0 mm | - | 729 W/m² | - |
| 1777995532 | 20.56° C | 64% | 1012.5 hPa | 0 mm | - | 710 W/m² | - |
| 1777995229 | 21.67° C | 64% | 1012.8 hPa | 0 mm | - | 693 W/m² | - |
| 1777994926 | 20.56° C | 62% | 1012.9 hPa | 0 mm | - | 714 W/m² | - |
| 1777994624 | 20° C | 65% | 1013.1 hPa | 0 mm | - | 599 W/m² | - |
| 1777994318 | 20° C | 67% | 1012.8 hPa | 0 mm | - | 740 W/m² | - |
* Rain latest hour (hover to see other rain measurements)
** Current wind speed in m/s (hover to see current wind gust speed)